Voltar ao catálogo

KUIPER-00198

AtivoComunicaçõesLEO
NORAD 67770·PAYLOAD·🇺🇸 United States

Lançado Feb 12, 2026 de Guiana Space Centre

Loading…

Próximas Passagens (próximas 24 horas)

TLE

AtualizadoSource: CelesTrak SupGP

Época: Sep 15, 2026, 03:25 UTC

1 67770C 26030G   26258.14270833  .00002115  00000+0  27690-3 0  2582
2 67770  51.8968  82.8302 0000874 113.8952   5.6534 14.79927288    18

Acompanhe KUIPER-00198 em tempo real com AllMySat

Download on the App Store